When you browse on this site, cookies collect data to enhance your experience and personalize the content and advertising you see.
Visit our Privacy Policy to learn more. By continuing to use the site, you agree to this use of cookies and data.
  • In Latvia
  • List of Countries
  • For 7 days
  • Water Temperature
  • Weather Map
  • Weather Widgets
  • user-avatar
    Login

    Hourly Weather Konstantyna

    Today, 23 February, Sunday

    Time Temperature Precipitation Wind Pressure Humidity
    00:00 +6°C° 0 mm 1 mps 720 mmHg 94%
    01:00 +6°C° 0 mm 1 mps 719 mmHg 93%
    02:00 +6°C° 0 mm 1 mps 719 mmHg 93%
    03:00 +5°C° 0 mm 0 mps 719 mmHg 92%
    04:00 +5°C° 0 mm 0 mps 719 mmHg 90%
    05:00 +5°C° 0 mm 1 mps 719 mmHg 89%
    06:00 +5°C° 0 mm 1 mps 720 mmHg 88%
    07:00 +8°C° 0 mm 1 mps 720 mmHg 77%
    08:00 +10°C° 0 mm 1 mps 720 mmHg 65%
    09:00 +13°C° 0 mm 1 mps 721 mmHg 54%
    10:00 +15°C° 0 mm 1 mps 721 mmHg 47%
    11:00 +16°C° 0 mm 2 mps 721 mmHg 39%
    12:00 +18°C° 0 mm 2 mps 721 mmHg 31%
    13:00 +18°C° 0 mm 2 mps 721 mmHg 33%
    14:00 +18°C° 0 mm 2 mps 720 mmHg 35%
    15:00 +18°C° 0 mm 2 mps 720 mmHg 36%
    16:00 +16°C° 0 mm 2 mps 719 mmHg 48%
    17:00 +13°C° 0 mm 1 mps 719 mmHg 60%
    18:00 +10°C° 0 mm 1 mps 719 mmHg 72%
    19:00 +10°C° 0 mm 1 mps 719 mmHg 75%
    20:00 +8°C° 0 mm 0 mps 719 mmHg 77%
    21:00 +8°C° 0 mm 0 mps 719 mmHg 80%
    22:00 +8°C° 0 mm 0 mps 719 mmHg 78%
    23:00 +7°C° 0 mm 0 mps 718 mmHg 76%

    Tomorrow, 24 February, Monday

    Time Temperature Precipitation Wind Pressure Humidity
    00:00 +7°C° 0 mm 0 mps 718 mmHg 74%
    01:00 +8°C° 0 mm 1 mps 718 mmHg 72%
    02:00 +8°C° 0 mm 1 mps 717 mmHg 70%
    03:00 +8°C° 0 mm 1 mps 717 mmHg 69%
    04:00 +8°C° 0 mm 1 mps 717 mmHg 68%
    05:00 +8°C° 0 mm 1 mps 716 mmHg 66%
    06:00 +8°C° 0 mm 1 mps 716 mmHg 65%
    07:00 +11°C° 0 mm 1 mps 717 mmHg 57%
    08:00 +13°C° 0 mm 1 mps 717 mmHg 49%
    09:00 +16°C° 0 mm 1 mps 718 mmHg 41%
    10:00 +18°C° 0 mm 1 mps 718 mmHg 38%
    11:00 +19°C° 0 mm 2 mps 717 mmHg 34%
    12:00 +20°C° 0 mm 2 mps 717 mmHg 31%
    13:00 +20°C° 0 mm 2 mps 717 mmHg 32%
    14:00 +20°C° 0 mm 2 mps 716 mmHg 33%
    15:00 +20°C° 0 mm 2 mps 716 mmHg 35%
    16:00 +19°C° 0 mm 1 mps 715 mmHg 44%
    17:00 +15°C° 0 mm 1 mps 715 mmHg 53%
    18:00 +12°C° 0 mm 1 mps 714 mmHg 63%
    19:00 +12°C° 0 mm 1 mps 714 mmHg 64%
    20:00 +12°C° 0 mm 1 mps 714 mmHg 65%
    21:00 +10°C° 0 mm 0 mps 714 mmHg 66%
    22:00 +11°C° 0 mm 1 mps 714 mmHg 65%
    23:00 +11°C° 0 mm 1 mps 713 mmHg 63%

    Day after tomorrow, 25 February, Tuesday

    Time Temperature Precipitation Wind Pressure Humidity
    00:00 +11°C° 0 mm 1 mps 713 mmHg 62%
    01:00 +11°C° 0 mm 1 mps 712 mmHg 61%
    02:00 +11°C° 0 mm 1 mps 712 mmHg 59%
    03:00 +10°C° 0 mm 1 mps 712 mmHg 57%
    04:00 +10°C° 0 mm 1 mps 711 mmHg 56%
    05:00 +10°C° 0 mm 1 mps 711 mmHg 56%
    06:00 +9°C° 0 mm 2 mps 711 mmHg 55%
    07:00 +13°C° 0 mm 2 mps 712 mmHg 50%
    08:00 +15°C° 0 mm 2 mps 712 mmHg 45%
    09:00 +18°C° 0 mm 2 mps 712 mmHg 40%
    10:00 +19°C° 0 mm 2 mps 712 mmHg 36%
    11:00 +20°C° 0 mm 3 mps 712 mmHg 32%
    12:00 +22°C° 0 mm 3 mps 712 mmHg 29%
    13:00 +22°C° 0 mm 3 mps 712 mmHg 30%
    14:00 +21°C° 0 mm 3 mps 711 mmHg 32%
    15:00 +21°C° 0 mm 4 mps 710 mmHg 34%
    16:00 +18°C° 0 mm 3 mps 710 mmHg 45%
    17:00 +16°C° 0 mm 2 mps 710 mmHg 57%
    18:00 +13°C° 0 mm 2 mps 709 mmHg 69%
    19:00 +12°C° 0 mm 1 mps 709 mmHg 71%
    20:00 +11°C° 0 mm 1 mps 709 mmHg 73%
    21:00 +10°C° 0 mm 1 mps 709 mmHg 75%
    22:00 +10°C° 0 mm 1 mps 709 mmHg 74%
    23:00 +11°C° 0 mm 1 mps 709 mmHg 73%

    26 February, Wednesday

    Time Temperature Precipitation Wind Pressure Humidity
    00:00 +11°C° 0 mm 1 mps 709 mmHg 72%
    01:00 +10°C° 0 mm 1 mps 709 mmHg 73%
    02:00 +10°C° 0 mm 1 mps 708 mmHg 74%
    03:00 +10°C° 0 mm 1 mps 708 mmHg 75%
    04:00 +9°C° 0 mm 1 mps 708 mmHg 77%
    05:00 +9°C° 0 mm 1 mps 708 mmHg 80%
    06:00 +8°C° 0 mm 1 mps 708 mmHg 82%
    07:00 +9°C° 0 mm 2 mps 708 mmHg 73%
    08:00 +11°C° 0 mm 3 mps 709 mmHg 65%
    09:00 +13°C° 0 mm 4 mps 710 mmHg 57%
    10:00 +14°C° 0 mm 5 mps 710 mmHg 54%
    11:00 +15°C° 0 mm 6 mps 710 mmHg 51%
    12:00 +15°C° 0 mm 7 mps 710 mmHg 49%
    13:00 +15°C° 0 mm 7 mps 710 mmHg 52%
    14:00 +14°C° 0 mm 7 mps 709 mmHg 55%
    15:00 +14°C° 0 mm 6 mps 709 mmHg 57%
    16:00 +12°C° 0 mm 5 mps 709 mmHg 65%
    17:00 +10°C° 0 mm 4 mps 709 mmHg 72%
    18:00 +9°C° 0 mm 2 mps 709 mmHg 80%
    19:00 +9°C° 0 mm 3 mps 709 mmHg 81%
    20:00 +7°C° 0 mm 4 mps 710 mmHg 82%
    21:00 +7°C° 0 mm 4 mps 711 mmHg 83%
    22:00 +7°C° 0 mm 4 mps 711 mmHg 84%
    23:00 +6°C° 0 mm 4 mps 711 mmHg 85%

    27 February, Thursday

    Time Temperature Precipitation Wind Pressure Humidity
    00:00 +5°C° 0 mm 3 mps 711 mmHg 86%
    01:00 +5°C° 0 mm 3 mps 711 mmHg 87%
    02:00 +5°C° 0 mm 2 mps 711 mmHg 89%
    03:00 +5°C° 0 mm 2 mps 711 mmHg 90%
    04:00 +5°C° 0 mm 2 mps 711 mmHg 90%
    05:00 +5°C° 0 mm 2 mps 711 mmHg 90%
    06:00 +5°C° 0 mm 1 mps 712 mmHg 90%
    07:00 +6°C° 0 mm 2 mps 712 mmHg 82%
    08:00 +8°C° 0 mm 2 mps 713 mmHg 74%
    09:00 +10°C° 0 mm 2 mps 714 mmHg 66%
    10:00 +11°C° 0 mm 3 mps 714 mmHg 60%
    11:00 +12°C° 0 mm 3 mps 714 mmHg 53%
    12:00 +14°C° 0 mm 3 mps 714 mmHg 47%
    13:00 +14°C° 0 mm 3 mps 714 mmHg 46%
    14:00 +14°C° 0 mm 3 mps 713 mmHg 44%
    15:00 +14°C° 0 mm 3 mps 713 mmHg 43%
    16:00 +13°C° 0 mm 2 mps 713 mmHg 50%
    17:00 +10°C° 0 mm 2 mps 713 mmHg 58%
    18:00 +9°C° 0 mm 1 mps 712 mmHg 66%
    19:00 +9°C° 0 mm 1 mps 713 mmHg 67%
    20:00 +8°C° 0 mm 1 mps 713 mmHg 68%
    21:00 +8°C° 0 mm 1 mps 713 mmHg 69%
    22:00 +8°C° 0 mm 1 mps 713 mmHg 67%
    23:00 +8°C° 0 mm 1 mps 713 mmHg 66%

    28 February, Friday

    Time Temperature Precipitation Wind Pressure Humidity
    00:00 +8°C° 0 mm 1 mps 713 mmHg 64%
    01:00 +8°C° 0 mm 1 mps 712 mmHg 63%
    02:00 +8°C° 0 mm 1 mps 712 mmHg 62%
    03:00 +7°C° 0 mm 2 mps 712 mmHg 62%
    04:00 +7°C° 0 mm 2 mps 712 mmHg 62%
    05:00 +7°C° 0 mm 2 mps 711 mmHg 62%
    06:00 +7°C° 0 mm 2 mps 711 mmHg 62%
    07:00 +9°C° 0 mm 2 mps 712 mmHg 56%
    08:00 +13°C° 0 mm 2 mps 712 mmHg 50%
    09:00 +14°C° 0 mm 3 mps 713 mmHg 44%
    10:00 +17°C° 0 mm 3 mps 712 mmHg 40%
    11:00 +19°C° 0 mm 4 mps 712 mmHg 36%
    12:00 +21°C° 0 mm 5 mps 712 mmHg 32%
    13:00 +21°C° 0 mm 5 mps 711 mmHg 32%
    14:00 +21°C° 0 mm 5 mps 711 mmHg 32%
    15:00 +22°C° 0 mm 5 mps 710 mmHg 33%
    16:00 +19°C° 0 mm 5 mps 710 mmHg 36%
    17:00 +17°C° 0 mm 4 mps 709 mmHg 40%
    18:00 +14°C° 0 mm 3 mps 709 mmHg 44%
    19:00 +13°C° 0 mm 3 mps 709 mmHg 45%
    20:00 +12°C° 0 mm 3 mps 709 mmHg 46%
    21:00 +13°C° 0 mm 2 mps 709 mmHg 47%
    22:00 +12°C° 0 mm 2 mps 708 mmHg 47%
    23:00 +12°C° 0 mm 2 mps 708 mmHg 47%
    Show more